• In Hungary
  • List of Countries
  • For 7 days
  • Water Temperature
  • Satellite Maps
  • Weather Map
  • News
  • Weather Widgets
  • user-avatar
    Login

    Hourly Weather Shazagay

    Today, 18 June, Monday

    Time Temperature Precipitation Wind Pressure Humidity
    00:00 +10°C° 0 mm 1 mps 680 mmHg 78%
    01:00 +10°C° 0 mm 1 mps 680 mmHg 81%
    02:00 +9°C° 0 mm 1 mps 680 mmHg 83%
    03:00 +9°C° 0 mm 1 mps 680 mmHg 84%
    04:00 +9°C° 0 mm 1 mps 680 mmHg 85%
    05:00 +11°C° 0 mm 1 mps 681 mmHg 76%
    06:00 +13°C° 0 mm 2 mps 681 mmHg 67%
    07:00 +16°C° 0 mm 2 mps 682 mmHg 57%
    08:00 +18°C° 0.1 mm 2 mps 682 mmHg 53%
    09:00 +19°C° 0.1 mm 3 mps 682 mmHg 48%
    10:00 +20°C° 0.1 mm 3 mps 682 mmHg 43%
    11:00 +21°C° 0 mm 3 mps 682 mmHg 40%
    12:00 +22°C° 0 mm 4 mps 682 mmHg 36%
    13:00 +23°C° 0 mm 4 mps 682 mmHg 33%
    14:00 +24°C° 0 mm 3 mps 682 mmHg 32%
    15:00 +24°C° 0 mm 3 mps 682 mmHg 31%
    16:00 +24°C° 0 mm 3 mps 682 mmHg 31%
    17:00 +22°C° 0 mm 3 mps 681 mmHg 36%
    18:00 +21°C° 0 mm 2 mps 681 mmHg 41%
    19:00 +21°C° 0 mm 1 mps 681 mmHg 47%
    20:00 +18°C° 0 mm 1 mps 681 mmHg 51%
    21:00 +15°C° 0 mm 1 mps 681 mmHg 55%
    22:00 +12°C° 0 mm 0 mps 681 mmHg 59%
    23:00 +12°C° 0 mm 0 mps 681 mmHg 61%

    Tomorrow, 19 June, Tuesday

    Time Temperature Precipitation Wind Pressure Humidity
    00:00 +11°C° 0 mm 0 mps 681 mmHg 63%
    01:00 +10°C° 0 mm 0 mps 681 mmHg 65%
    02:00 +10°C° 0 mm 0 mps 681 mmHg 67%
    03:00 +11°C° 0 mm 1 mps 681 mmHg 68%
    04:00 +10°C° 0 mm 1 mps 680 mmHg 69%
    05:00 +13°C° 0 mm 1 mps 681 mmHg 62%
    06:00 +15°C° 0 mm 1 mps 681 mmHg 55%
    07:00 +19°C° 0 mm 1 mps 682 mmHg 48%
    08:00 +21°C° 0 mm 1 mps 682 mmHg 43%
    09:00 +23°C° 0 mm 1 mps 682 mmHg 38%
    10:00 +25°C° 0 mm 2 mps 682 mmHg 33%
    11:00 +26°C° 0 mm 2 mps 682 mmHg 31%
    12:00 +27°C° 0 mm 2 mps 681 mmHg 29%
    13:00 +28°C° 0 mm 2 mps 681 mmHg 27%
    14:00 +28°C° 0 mm 2 mps 681 mmHg 27%
    15:00 +28°C° 0 mm 2 mps 680 mmHg 27%
    16:00 +28°C° 0 mm 2 mps 680 mmHg 27%
    17:00 +26°C° 0 mm 2 mps 679 mmHg 33%
    18:00 +24°C° 0 mm 2 mps 679 mmHg 39%
    19:00 +22°C° 0 mm 1 mps 678 mmHg 45%
    20:00 +21°C° 0 mm 1 mps 678 mmHg 47%
    21:00 +18°C° 0 mm 2 mps 678 mmHg 50%
    22:00 +16°C° 0 mm 2 mps 678 mmHg 52%
    23:00 +15°C° 0 mm 2 mps 678 mmHg 54%

    Day after tomorrow, 20 June, Wednesday

    Time Temperature Precipitation Wind Pressure Humidity
    00:00 +14°C° 0 mm 2 mps 677 mmHg 56%
    01:00 +14°C° 0 mm 2 mps 677 mmHg 58%
    02:00 +13°C° 0 mm 2 mps 677 mmHg 58%
    03:00 +13°C° 0 mm 2 mps 676 mmHg 58%
    04:00 +13°C° 0 mm 2 mps 676 mmHg 59%
    05:00 +15°C° 0 mm 2 mps 676 mmHg 53%
    06:00 +18°C° 0 mm 2 mps 677 mmHg 48%
    07:00 +20°C° 0 mm 2 mps 677 mmHg 43%
    08:00 +24°C° 0 mm 2 mps 677 mmHg 37%
    09:00 +26°C° 0 mm 2 mps 677 mmHg 32%
    10:00 +29°C° 0 mm 2 mps 677 mmHg 26%
    11:00 +29°C° 0 mm 2 mps 677 mmHg 27%
    12:00 +30°C° 0 mm 2 mps 677 mmHg 27%
    13:00 +31°C° 0 mm 2 mps 676 mmHg 27%
    14:00 +31°C° 0 mm 2 mps 676 mmHg 29%
    15:00 +30°C° 0 mm 2 mps 675 mmHg 31%
    16:00 +30°C° 0 mm 1 mps 675 mmHg 33%
    17:00 +29°C° 0 mm 1 mps 675 mmHg 39%
    18:00 +27°C° 0 mm 1 mps 675 mmHg 44%
    19:00 +26°C° 0 mm 1 mps 675 mmHg 49%
    20:00 +24°C° 0.2 mm 2 mps 675 mmHg 55%
    21:00 +20°C° 0.2 mm 2 mps 674 mmHg 61%
    22:00 +18°C° 0.2 mm 3 mps 674 mmHg 67%
    23:00 +18°C° 0.2 mm 2 mps 674 mmHg 73%

    21 June, Thursday

    Time Temperature Precipitation Wind Pressure Humidity
    00:00 +17°C° 0.2 mm 2 mps 674 mmHg 79%
    01:00 +16°C° 0.2 mm 2 mps 674 mmHg 85%
    02:00 +16°C° 0.3 mm 1 mps 674 mmHg 88%
    03:00 +16°C° 0.3 mm 1 mps 674 mmHg 91%
    04:00 +15°C° 0.3 mm 1 mps 675 mmHg 94%
    05:00 +16°C° 0.1 mm 1 mps 675 mmHg 91%
    06:00 +16°C° 0.1 mm 2 mps 675 mmHg 89%
    07:00 +17°C° 0.1 mm 2 mps 676 mmHg 86%
    08:00 +18°C° 0.1 mm 2 mps 676 mmHg 82%
    09:00 +18°C° 0.1 mm 2 mps 676 mmHg 77%
    10:00 +19°C° 0.1 mm 3 mps 676 mmHg 73%
    11:00 +20°C° 0.2 mm 3 mps 676 mmHg 68%
    12:00 +21°C° 0.2 mm 3 mps 676 mmHg 64%
    13:00 +22°C° 0.2 mm 3 mps 676 mmHg 60%
    14:00 +22°C° 0.1 mm 3 mps 676 mmHg 57%
    15:00 +24°C° 0.1 mm 3 mps 676 mmHg 54%
    16:00 +25°C° 0.1 mm 3 mps 676 mmHg 51%
    17:00 +24°C° 0.1 mm 2 mps 676 mmHg 57%
    18:00 +23°C° 0.1 mm 2 mps 676 mmHg 62%
    19:00 +22°C° 0.1 mm 1 mps 676 mmHg 67%
    20:00 +20°C° 0 mm 1 mps 676 mmHg 72%
    21:00 +18°C° 0 mm 1 mps 676 mmHg 77%
    22:00 +15°C° 0 mm 1 mps 676 mmHg 83%
    23:00 +15°C° 0 mm 1 mps 676 mmHg 84%

    22 June, Friday

    Time Temperature Precipitation Wind Pressure Humidity
    00:00 +14°C° 0 mm 1 mps 676 mmHg 86%
    01:00 +14°C° 0 mm 1 mps 676 mmHg 87%
    02:00 +14°C° 0 mm 1 mps 676 mmHg 88%
    03:00 +13°C° 0 mm 1 mps 676 mmHg 89%
    04:00 +13°C° 0 mm 1 mps 676 mmHg 90%
    05:00 +15°C° 0 mm 1 mps 676 mmHg 83%
    06:00 +18°C° 0 mm 1 mps 677 mmHg 75%
    07:00 +20°C° 0 mm 1 mps 677 mmHg 68%
    08:00 +22°C° 0 mm 1 mps 678 mmHg 61%
    09:00 +24°C° 0 mm 1 mps 678 mmHg 53%
    10:00 +26°C° 0 mm 1 mps 678 mmHg 46%
    11:00 +26°C° 0 mm 1 mps 678 mmHg 45%
    12:00 +27°C° 0 mm 1 mps 678 mmHg 44%
    13:00 +27°C° 0 mm 1 mps 678 mmHg 43%
    14:00 +26°C° 0.2 mm 1 mps 677 mmHg 47%
    15:00 +25°C° 0.2 mm 1 mps 677 mmHg 51%
    16:00 +25°C° 0.2 mm 1 mps 677 mmHg 55%
    17:00 +23°C° 0.3 mm 1 mps 677 mmHg 62%
    18:00 +22°C° 0.3 mm 1 mps 677 mmHg 69%
    19:00 +20°C° 0.3 mm 1 mps 677 mmHg 77%
    20:00 +19°C° 0.3 mm 1 mps 677 mmHg 81%
    21:00 +18°C° 0.3 mm 1 mps 676 mmHg 85%
    22:00 +16°C° 0.3 mm 1 mps 676 mmHg 89%
    23:00 +15°C° 0.3 mm 1 mps 676 mmHg 90%

    23 June, Saturday

    Time Temperature Precipitation Wind Pressure Humidity
    00:00 +15°C° 0.3 mm 1 mps 676 mmHg 92%
    01:00 +13°C° 0.3 mm 0 mps 676 mmHg 93%
    02:00 +13°C° 0.5 mm 0 mps 676 mmHg 94%
    03:00 +12°C° 0.5 mm 0 mps 676 mmHg 95%
    04:00 +12°C° 0.5 mm 0 mps 675 mmHg 95%
    05:00 +15°C° 0.1 mm 1 mps 676 mmHg 91%
    06:00 +16°C° 0.1 mm 1 mps 676 mmHg 86%
    07:00 +19°C° 0.1 mm 1 mps 677 mmHg 82%
    08:00 +20°C° 0.1 mm 1 mps 677 mmHg 76%
    09:00 +20°C° 0.1 mm 2 mps 676 mmHg 70%
    10:00 +21°C° 0.1 mm 2 mps 676 mmHg 64%
    11:00 +23°C° 0.7 mm 2 mps 676 mmHg 63%
    12:00 +24°C° 0.7 mm 3 mps 676 mmHg 61%
    13:00 +24°C° 0.7 mm 3 mps 676 mmHg 60%
    14:00 +25°C° 0.8 mm 3 mps 676 mmHg 59%
    15:00 +25°C° 0.8 mm 3 mps 676 mmHg 57%
    16:00 +25°C° 0.8 mm 3 mps 676 mmHg 56%
    17:00 +24°C° 0.5 mm 2 mps 675 mmHg 61%
    18:00 +23°C° 0.5 mm 2 mps 675 mmHg 65%
    19:00 +21°C° 0.5 mm 2 mps 675 mmHg 70%
    20:00 +20°C° 0.5 mm 1 mps 675 mmHg 75%
    21:00 +18°C° 0.5 mm 1 mps 675 mmHg 80%
    22:00 +16°C° 0.5 mm 1 mps 675 mmHg 85%
    23:00 +15°C° 0.2 mm 1 mps 675 mmHg 87%
    Show more